Location: Wellington
(41.3000°S, 174.7830°E)
Time: 18:03:48
(UTC+13:00)

Cosmos 1818 - Pass Details

Date: 24 January 2019
Orbit: 771 x 802 km, 65.0° (Epoch: 21 February)

Event Time Altitude Azimuth Distance (km) Brightness Sun altitude
Exits shadow 23:47:54 21° 310° (NW) 1,700 5.1 -24.8°
Maximum altitude 23:51:28 61° 235° (SW) 887 3.9 -25.1°
Drops below altitude 10° 23:56:49 10° 154° (SSE) 2,351 6.5 -25.5°
Sets 23:59:16 0° 150° (SSE) 3,282 7.2 -25.7°
